Regional Weather Roundup
Issued by NWS

Home | Current Version | Previous Version | Text Only | Print | Product List | Glossary Off
Versions: 1 2 3 4 5 6 7 8 9 10 11 12 13 14 15 16 17 18 19 20 21 22 23 24 25 26 27 28 29 30 31 32 33 34 35 36 37 38 39 40 41 42 43 44 45 46 47 48 49 50

000
ASUS43 KBIS 201959
RWRND

NORTH DAKOTA REGIONAL WEATHER ROUNDUP
NATIONAL WEATHER SERVICE BISMARCK ND
300 PM CDT SUN APR 20 2014

NOTE: "FAIR" INDICATES FEW OR NO CLOUDS BELOW 12,000 FEET WITH NO
SIGNIFICANT WEATHER AND/OR OBSTRUCTIONS TO VISIBILITY.


NDZ001>003-009>011-017-202100-
NORTHWEST NORTH DAKOTA

CITY           SKY/WX    TMP DP  RH WIND       PRES   REMARKS
WILLISTON      MOSUNNY   66  26  22 W22G36    29.89R
MINOT          CLOUDY    70  32  24 S20G31    29.80F
$$

NDZ018>021-031>035-040>046-202100-
SOUTHWEST NORTH DAKOTA

CITY           SKY/WX    TMP DP  RH WIND       PRES   REMARKS
BISMARCK       PTSUNNY   75  32  20 S16G23    29.87F
DICKINSON      CLOUDY    69  26  20 W23G31    29.91R
GARRISON         N/A     73  37  27 W16       29.83F
HETTINGER ARPT CLOUDY    67  32  27 NW18      29.94R
$$

NDZ004>008-012>016-024-026-027-054-202100-
NORTHEAST NORTH DAKOTA

CITY           SKY/WX    TMP DP  RH WIND       PRES   REMARKS
GRAND FORKS    PTSUNNY   68  40  35 S12       29.94F
DEVILS LAKE    CLOUDY    68  37  32 S15       29.89F
$$

NDZ022-023-025-028>030-036>039-047>053-202100-
SOUTHEAST NORTH DAKOTA

CITY           SKY/WX    TMP DP  RH WIND       PRES   REMARKS
FARGO          SUNNY     73  33  23 S10       29.94F
$$




USA.gov is the U.S. government's official web portal to all federal, state and local government web resources and services.